| time (UTC) | temp F | wind direction | speed knots | gust knots | rain 1hr in | rain 24hr in | rain mn in | humidity % | barometer mb |
| 20260902113033 | 55 | 233 | 0.0 | 0.0 | 0.00 | 0.00 | 0.00 | 71 | 984.7 |
| 20260902112534 | 55 | 233 | 0.0 | 0.0 | 0.00 | 0.00 | 0.00 | 71 | 984.6 |
| 20260902112036 | 55 | 233 | 0.0 | 0.0 | 0.00 | 0.00 | 0.00 | 71 | 984.6 |
| 20260902111534 | 54 | 233 | 0.0 | 0.0 | 0.00 | 0.00 | 0.00 | 70 | 984.7 |
| 20260902111032 | 55 | 233 | 0.0 | 0.0 | 0.00 | 0.00 | 0.00 | 70 | 984.7 |
| 20260902110531 | 55 | 233 | 0.0 | 0.0 | 0.00 | 0.00 | 0.00 | 70 | 984.6 |
| 20260902110042 | 55 | 233 | 0.0 | 0.0 | 0.00 | 0.00 | 0.00 | 71 | 984.5 |
| 20260902105530 | 55 | 233 | 0.0 | 0.0 | 0.00 | 0.00 | 0.00 | 71 | 984.6 |
| 20260902105030 | 55 | 233 | 0.0 | 0.0 | 0.00 | 0.00 | 0.00 | 70 | 984.6 |
| 20260902104537 | 55 | 233 | 0.0 | 0.0 | 0.00 | 0.00 | 0.00 | 71 | 984.6 |
| 20260902104029 | 55 | 233 | 0.0 | 0.0 | 0.00 | 0.00 | 0.00 | 70 | 984.7 |
| 20260902103528 | 55 | 233 | 0.0 | 0.0 | 0.00 | 0.00 | 0.00 | 70 | 984.7 |
| 20260902103034 | 55 | 233 | 0.0 | 0.0 | 0.00 | 0.00 | 0.00 | 70 | 984.7 |
| 20260902102528 | 55 | 233 | 0.0 | 0.0 | 0.00 | 0.00 | 0.00 | 70 | 984.7 |
| 20260902102028 | 55 | 233 | 0.0 | 0.0 | 0.00 | 0.00 | 0.00 | 70 | 984.6 |
| 20260902101528 | 56 | 233 | 0.0 | 0.0 | 0.00 | 0.00 | 0.00 | 70 | 984.7 |
| 20260902101027 | 56 | 233 | 0.0 | 0.0 | 0.00 | 0.00 | 0.00 | 70 | 984.7 |
| 20260902100530 | 57 | 233 | 0.0 | 0.0 | 0.00 | 0.00 | 0.00 | 71 | 984.7 |
| 20260902100027 | 57 | 233 | 0.0 | 0.0 | 0.00 | 0.00 | 0.00 | 71 | 984.7 |
| 20260902095528 | 56 | 233 | 0.0 | 0.0 | 0.00 | 0.00 | 0.00 | 71 | 984.7 |
| 20260902095026 | 56 | 233 | 0.0 | 1.7 | 0.00 | 0.00 | 0.00 | 71 | 984.6 |
| 20260902094526 | 55 | 233 | 0.0 | 2.6 | 0.00 | 0.00 | 0.00 | 70 | 984.6 |
| 20260902094033 | 56 | 233 | 1.7 | 2.6 | 0.00 | 0.00 | 0.00 | 70 | 984.7 |
| 20260902093526 | 56 | 233 | 1.7 | 2.6 | 0.00 | 0.00 | 0.00 | 70 | 984.7 |
| 20260902093035 | 56 | 233 | 0.0 | 1.7 | 0.00 | 0.00 | 0.00 | 70 | 984.6 |
| 20260902092525 | 56 | 233 | 0.0 | 0.9 | 0.00 | 0.00 | 0.00 | 70 | 984.5 |
| 20260902092024 | 57 | 233 | 0.0 | 1.7 | 0.00 | 0.00 | 0.00 | 70 | 984.5 |
| 20260902091527 | 57 | 233 | 0.9 | 1.7 | 0.00 | 0.00 | 0.00 | 70 | 984.5 |
| 20260902091024 | 57 | 233 | 0.9 | 1.7 | 0.00 | 0.00 | 0.00 | 70 | 984.4 |
| 20260902090523 | 57 | 233 | 0.9 | 1.7 | 0.00 | 0.00 | 0.00 | 70 | 984.4 |
| 20260902090023 | 57 | 233 | 0.9 | 2.6 | 0.00 | 0.00 | 0.00 | 70 | 984.4 |
| 20260902085523 | 57 | 233 | 1.7 | 2.6 | 0.00 | 0.00 | 0.00 | 70 | 984.4 |
| 20260902085023 | 57 | 233 | 0.9 | 1.7 | 0.00 | 0.00 | 0.00 | 70 | 984.4 |
| 20260902084525 | 56 | 233 | 0.9 | 1.7 | 0.00 | 0.00 | 0.00 | 70 | 984.4 |
| 20260902084023 | 56 | 233 | 0.0 | 1.7 | 0.00 | 0.00 | 0.00 | 70 | 984.4 |
| 20260902083522 | 56 | 233 | 0.0 | 1.7 | 0.00 | 0.00 | 0.00 | 70 | 984.4 |
| 20260902083033 | 56 | 233 | 0.9 | 1.7 | 0.00 | 0.00 | 0.00 | 70 | 984.4 |
| 20260902082522 | 56 | 233 | 0.9 | 1.7 | 0.00 | 0.00 | 0.00 | 70 | 984.6 |
| 20260902082021 | 56 | 233 | 0.0 | 0.0 | 0.00 | 0.00 | 0.00 | 70 | 984.5 |
| 20260902081526 | 55 | 233 | 0.0 | 0.0 | 0.00 | 0.00 | 0.00 | 70 | 984.4 |
| 20260902081020 | 55 | 233 | 0.0 | 0.9 | 0.00 | 0.00 | 0.00 | 70 | 984.4 |
| 20260902080520 | 55 | 233 | 0.0 | 0.9 | 0.00 | 0.00 | 0.00 | 70 | 984.3 |
| 20260902080026 | 56 | 233 | 0.0 | 0.0 | 0.00 | 0.00 | 0.00 | 69 | 984.4 |
| 20260902075517 | 56 | 233 | 0.0 | 0.0 | 0.00 | 0.00 | 0.00 | 69 | 984.4 |
| 20260902075019 | 56 | 233 | 0.0 | 0.0 | 0.00 | 0.00 | 0.00 | 70 | 984.4 |
| 20260902074517 | 57 | 233 | 0.0 | 0.0 | 0.00 | 0.00 | 0.00 | 70 | 984.4 |
| 20260902074018 | 56 | 233 | 0.0 | 1.7 | 0.00 | 0.00 | 0.00 | 70 | 984.4 |
| 20260902073517 | 56 | 233 | 0.0 | 2.6 | 0.00 | 0.00 | 0.00 | 70 | 984.3 |
| 20260902073028 | 57 | 233 | 1.7 | 2.6 | 0.00 | 0.00 | 0.00 | 70 | 984.4 |
| 20260902072516 | 57 | 233 | 1.7 | 2.6 | 0.00 | 0.00 | 0.00 | 70 | 984.4 |
| 20260902072017 | 57 | 233 | 0.0 | 1.7 | 0.00 | 0.00 | 0.00 | 70 | 984.4 |
| 20260902071518 | 57 | 233 | 0.0 | 0.0 | 0.00 | 0.00 | 0.00 | 70 | 984.4 |
| 20260902071016 | 57 | 233 | 0.0 | 0.0 | 0.00 | 0.00 | 0.00 | 70 | 984.5 |
| 20260902070515 | 57 | 233 | 0.0 | 0.0 | 0.00 | 0.00 | 0.00 | 70 | 984.4 |
| 20260902070015 | 57 | 233 | 0.0 | 1.7 | 0.00 | 0.00 | 0.00 | 70 | 984.4 |
| 20260902065514 | 57 | 233 | 0.0 | 1.7 | 0.00 | 0.00 | 0.00 | 70 | 984.3 |
| 20260902065014 | 57 | 233 | 0.9 | 2.6 | 0.00 | 0.00 | 0.00 | 70 | 984.3 |
| 20260902064515 | 57 | 233 | 1.7 | 2.6 | 0.00 | 0.00 | 0.00 | 70 | 984.3 |
| 20260902064014 | 57 | 233 | 0.9 | 2.6 | 0.00 | 0.00 | 0.00 | 70 | 984.3 |
| 20260902063515 | 56 | 233 | 0.9 | 1.7 | 0.00 | 0.00 | 0.00 | 70 | 984.2 |
| 20260902063016 | 56 | 233 | 0.0 | 1.7 | 0.00 | 0.00 | 0.00 | 70 | 984.3 |
| 20260902062512 | 56 | 233 | 0.9 | 1.7 | 0.00 | 0.00 | 0.00 | 70 | 984.3 |
| 20260902062011 | 56 | 233 | 0.9 | 1.7 | 0.00 | 0.00 | 0.00 | 70 | 984.3 |
| 20260902061513 | 56 | 233 | 0.9 | 3.5 | 0.00 | 0.00 | 0.00 | 70 | 984.2 |
| 20260902061019 | 57 | 233 | 1.7 | 3.5 | 0.00 | 0.00 | 0.00 | 70 | 984.2 |
| 20260902060510 | 57 | 244 | 1.7 | 3.5 | 0.00 | 0.00 | 0.00 | 70 | 984.1 |
| 20260902060010 | 57 | 244 | 1.7 | 3.5 | 0.00 | 0.00 | 0.00 | 70 | 984.1 |
| 20260902055509 | 57 | 269 | 2.6 | 3.5 | 0.00 | 0.00 | 0.00 | 70 | 984.1 |
| 20260902055009 | 57 | 269 | 1.7 | 2.6 | 0.00 | 0.00 | 0.00 | 70 | 984.1 |
| 20260902054520 | 57 | 269 | 0.9 | 1.7 | 0.00 | 0.00 | 0.00 | 70 | 984.1 |
| 20260902054007 | 57 | 269 | 0.0 | 2.6 | 0.00 | 0.00 | 0.00 | 69 | 984.0 |
| 20260902053507 | 57 | 269 | 1.7 | 2.6 | 0.00 | 0.00 | 0.00 | 69 | 983.9 |
| 20260902053008 | 57 | 269 | 0.9 | 2.6 | 0.00 | 0.00 | 0.00 | 69 | 983.8 |
| 20260902052507 | 57 | 273 | 0.0 | 1.7 | 0.00 | 0.00 | 0.00 | 70 | 983.8 |
| 20260902052004 | 57 | 273 | 0.0 | 0.9 | 0.00 | 0.00 | 0.00 | 70 | 983.9 |
| 20260902051507 | 57 | 273 | 0.0 | 0.9 | 0.00 | 0.00 | 0.00 | 69 | 983.9 |
| 20260902051004 | 57 | 273 | 0.0 | 0.0 | 0.00 | 0.00 | 0.00 | 69 | 983.9 |
| 20260902050503 | 57 | 273 | 0.0 | 0.0 | 0.00 | 0.00 | 0.00 | 69 | 983.9 |
| 20260902050004 | 57 | 273 | 0.0 | 0.0 | 0.00 | 0.00 | 0.00 | 69 | 983.9 |
| 20260902045502 | 57 | 273 | 0.0 | 0.0 | 0.00 | 0.00 | 0.00 | 69 | 983.9 |
| 20260902045001 | 57 | 273 | 0.0 | 1.7 | 0.00 | 0.00 | 0.00 | 69 | 983.9 |
| 20260902044502 | 58 | 273 | 0.0 | 1.7 | 0.00 | 0.00 | 0.00 | 69 | 983.9 |
| 20260902044002 | 58 | 257 | 0.0 | 0.0 | 0.00 | 0.00 | 0.00 | 69 | 983.9 |
| 20260902043501 | 58 | 257 | 0.0 | 0.0 | 0.00 | 0.00 | 0.00 | 69 | 984.0 |
| 20260902043001 | 58 | 257 | 0.0 | 0.0 | 0.00 | 0.00 | 0.00 | 69 | 984.0 |
| 20260902042501 | 59 | 257 | 0.0 | 0.0 | 0.00 | 0.00 | 0.00 | 69 | 984.0 |
| 20260902042001 | 59 | 257 | 0.0 | 0.0 | 0.00 | 0.00 | 0.00 | 69 | 984.0 |
| 20260902041610 | 58 | 257 | 0.0 | 0.9 | 0.00 | 0.00 | 0.00 | 69 | 984.0 |
| 20260902041059 | 58 | 257 | 0.0 | 1.7 | 0.00 | 0.00 | 0.00 | 69 | 984.0 |
| 20260902040559 | 58 | 257 | 0.0 | 1.7 | 0.00 | 0.00 | 0.00 | 69 | 983.9 |
| 20260902040103 | 58 | 257 | 0.0 | 0.9 | 0.00 | 0.00 | 0.00 | 68 | 983.9 |
| 20260902035559 | 58 | 257 | 0.0 | 1.7 | 0.00 | 0.00 | 0.00 | 68 | 983.9 |
| 20260902035058 | 58 | 257 | 0.0 | 1.7 | 0.00 | 0.00 | 0.00 | 67 | 983.9 |
| 20260902034559 | 58 | 257 | 0.0 | 2.6 | 0.00 | 0.00 | 0.00 | 66 | 983.8 |
| 20260902034100 | 59 | 257 | 0.9 | 2.6 | 0.00 | 0.00 | 0.00 | 66 | 983.9 |
| 20260902033557 | 59 | 257 | 1.7 | 2.6 | 0.00 | 0.00 | 0.00 | 66 | 983.9 |
| 20260902033101 | 59 | 343 | 0.0 | 0.0 | 0.00 | 0.00 | 0.00 | 65 | 983.8 |
| 20260902032601 | 59 | 343 | 0.0 | 1.7 | 0.00 | 0.00 | 0.00 | 65 | 983.8 |
| 20260902032056 | 60 | 343 | 0.9 | 1.7 | 0.00 | 0.00 | 0.00 | 66 | 983.8 |
| 20260902031556 | 59 | 344 | 0.0 | 0.0 | 0.00 | 0.00 | 0.00 | 63 | 983.7 |
| 20260902031056 | 59 | 344 | 0.0 | 0.0 | 0.00 | 0.00 | 0.00 | 61 | 983.7 |
| 20260902030559 | 60 | 344 | 0.0 | 0.0 | 0.00 | 0.00 | 0.00 | 61 | 983.7 |
| 20260902030055 | 60 | 344 | 0.0 | 0.0 | 0.00 | 0.00 | 0.00 | 60 | 983.6 |
| 20260902025555 | 60 | 344 | 0.0 | 0.0 | 0.00 | 0.00 | 0.00 | 59 | 983.5 |
| 20260902025054 | 61 | 344 | 0.0 | 0.0 | 0.00 | 0.00 | 0.00 | 60 | 983.5 |
| 20260902024553 | 61 | 344 | 0.0 | 0.0 | 0.00 | 0.00 | 0.00 | 60 | 983.4 |
| 20260902024053 | 61 | 344 | 0.0 | 0.0 | 0.00 | 0.00 | 0.00 | 59 | 983.3 |
| 20260902023553 | 61 | 344 | 0.0 | 0.0 | 0.00 | 0.00 | 0.00 | 59 | 983.3 |
| 20260902023053 | 61 | 344 | 0.0 | 0.0 | 0.00 | 0.00 | 0.00 | 59 | 983.3 |
| 20260902022554 | 61 | 344 | 0.0 | 0.0 | 0.00 | 0.00 | 0.00 | 58 | 983.3 |
| 20260902022052 | 62 | 344 | 0.0 | 0.0 | 0.00 | 0.00 | 0.00 | 57 | 983.4 |
| 20260902021555 | 62 | 344 | 0.0 | 0.0 | 0.00 | 0.00 | 0.00 | 57 | 983.4 |
| 20260902021053 | 62 | 344 | 0.0 | 0.0 | 0.00 | 0.00 | 0.00 | 56 | 983.4 |
| 20260902020552 | 63 | 344 | 0.0 | 0.0 | 0.00 | 0.00 | 0.00 | 56 | 983.4 |
| 20260902020052 | 63 | 344 | 0.0 | 0.0 | 0.00 | 0.00 | 0.00 | 55 | 983.3 |
| 20260902015551 | 63 | 344 | 0.0 | 0.0 | 0.00 | 0.00 | 0.00 | 56 | 983.3 |
| 20260902015051 | 63 | 344 | 0.0 | 0.0 | 0.00 | 0.00 | 0.00 | 55 | 983.2 |
| 20260902014553 | 64 | 344 | 0.0 | 0.0 | 0.00 | 0.00 | 0.00 | 55 | 983.2 |
| 20260902014053 | 64 | 344 | 0.0 | 0.0 | 0.00 | 0.00 | 0.00 | 55 | 983.2 |
| 20260902013549 | 64 | 344 | 0.0 | 0.0 | 0.00 | 0.00 | 0.00 | 55 | 983.1 |
| 20260902013049 | 64 | 343 | 0.0 | 0.0 | 0.00 | 0.00 | 0.00 | 54 | 983.1 |
| 20260902012548 | 65 | 343 | 0.0 | 0.0 | 0.00 | 0.00 | 0.00 | 54 | 983.1 |
| 20260902012048 | 65 | 344 | 0.0 | 0.0 | 0.00 | 0.00 | 0.00 | 54 | 983.0 |
| 20260902011549 | 66 | 344 | 0.0 | 0.0 | 0.00 | 0.00 | 0.00 | 53 | 982.9 |
| 20260902011048 | 66 | 343 | 0.0 | 0.0 | 0.00 | 0.00 | 0.00 | 53 | 982.9 |
| 20260902010547 | 67 | 343 | 0.0 | 0.0 | 0.00 | 0.00 | 0.00 | 53 | 982.9 |
| 20260902010048 | 67 | 343 | 0.0 | 0.0 | 0.00 | 0.00 | 0.00 | 52 | 982.9 |
| 20260902005550 | 68 | 343 | 0.0 | 0.0 | 0.00 | 0.00 | 0.00 | 52 | 983.0 |
| 20260902005050 | 68 | 343 | 0.0 | 0.0 | 0.00 | 0.00 | 0.00 | 52 | 983.0 |
| 20260902004548 | 68 | 343 | 0.0 | 0.0 | 0.00 | 0.00 | 0.00 | 51 | 983.0 |
| 20260902004047 | 68 | 343 | 0.0 | 0.0 | 0.00 | 0.00 | 0.00 | 51 | 982.9 |
| 20260902003549 | 69 | 343 | 0.0 | 0.0 | 0.00 | 0.00 | 0.00 | 51 | 982.9 |
| 20260902003054 | 69 | 343 | 0.0 | 0.0 | 0.00 | 0.00 | 0.00 | 50 | 982.9 |
| 20260902002549 | 69 | 343 | 0.0 | 0.0 | 0.00 | 0.00 | 0.00 | 50 | 982.9 |
| 20260902002046 | 69 | 343 | 0.0 | 0.0 | 0.00 | 0.00 | 0.00 | 50 | 982.9 |
| 20260902001547 | 69 | 343 | 0.0 | 0.0 | 0.00 | 0.00 | 0.00 | 50 | 982.9 |
| 20260902001046 | 69 | 343 | 0.0 | 0.0 | 0.00 | 0.00 | 0.00 | 50 | 982.9 |
| 20260902000546 | 69 | 343 | 0.0 | 2.6 | 0.00 | 0.00 | 0.00 | 50 | 982.9 |
| 20260902000111 | 69 | 343 | 0.0 | 3.5 | 0.00 | 0.00 | 0.00 | 50 | 983.0 |
| 20260901235547 | 69 | 343 | 1.7 | 3.5 | 0.00 | 0.02 | 0.00 | 49 | 982.9 |
| 20260901235045 | 69 | 340 | 1.7 | 3.5 | 0.00 | 0.02 | 0.00 | 49 | 982.9 |
| 20260901234545 | 69 | 341 | 0.9 | 3.5 | 0.00 | 0.02 | 0.00 | 49 | 983.0 |
| 20260901234045 | 69 | 360 | 0.9 | 5.2 | 0.00 | 0.02 | 0.00 | 49 | 982.9 |
| 20260901233544 | 69 | 335 | 2.6 | 5.2 | 0.00 | 0.02 | 0.00 | 48 | 982.8 |
| 20260901233044 | 70 | 292 | 1.7 | 4.3 | 0.00 | 0.02 | 0.00 | 49 | 982.8 |
| 20260901232545 | 70 | 308 | 1.7 | 5.2 | 0.00 | 0.02 | 0.00 | 48 | 982.9 |
| 20260901232045 | 70 | 360 | 2.6 | 5.2 | 0.00 | 0.02 | 0.00 | 48 | 982.8 |
| 20260901231549 | 70 | 296 | 1.7 | 4.3 | 0.00 | 0.02 | 0.00 | 48 | 982.9 |
| 20260901231045 | 70 | 355 | 2.6 | 7.0 | 0.00 | 0.02 | 0.00 | 48 | 982.8 |
| 20260901230543 | 70 | 343 | 3.5 | 7.0 | 0.00 | 0.02 | 0.00 | 46 | 982.8 |
| 20260901230043 | 70 | 339 | 2.6 | 7.0 | 0.00 | 0.02 | 0.00 | 47 | 982.7 |
| 20260901225543 | 70 | 360 | 3.5 | 7.0 | 0.00 | 0.02 | 0.00 | 46 | 982.7 |
| 20260901225042 | 70 | 308 | 3.5 | 7.0 | 0.00 | 0.02 | 0.00 | 46 | 982.8 |
| 20260901224542 | 70 | 360 | 2.6 | 7.0 | 0.00 | 0.02 | 0.00 | 46 | 982.8 |
| 20260901224042 | 70 | 296 | 3.5 | 7.0 | 0.00 | 0.02 | 0.00 | 46 | 982.8 |
| 20260901223542 | 70 | 360 | 2.6 | 4.3 | 0.00 | 0.02 | 0.00 | 47 | 982.6 |
| 20260901223042 | 70 | 346 | 1.7 | 5.2 | 0.00 | 0.02 | 0.00 | 47 | 982.7 |
| 20260901222543 | 70 | 350 | 2.6 | 7.0 | 0.00 | 0.02 | 0.00 | 46 | 982.7 |
| 20260901222041 | 70 | 349 | 2.6 | 7.0 | 0.00 | 0.02 | 0.00 | 47 | 982.6 |
| 20260901221541 | 70 | 360 | 3.5 | 6.1 | 0.00 | 0.02 | 0.00 | 47 | 982.7 |
| 20260901221041 | 70 | 270 | 2.6 | 5.2 | 0.00 | 0.02 | 0.00 | 46 | 982.6 |
| 20260901220541 | 70 | 348 | 2.6 | 4.3 | 0.00 | 0.02 | 0.00 | 46 | 982.7 |
| 20260901220106 | 70 | 300 | 0.9 | 5.2 | 0.00 | 0.02 | 0.00 | 46 | 982.6 |
| 20260901215540 | 70 | 300 | 2.6 | 5.2 | 0.00 | 0.02 | 0.00 | 46 | 982.6 |
| 20260901215040 | 70 | 306 | 1.7 | 4.3 | 0.00 | 0.02 | 0.00 | 46 | 982.5 |
| 20260901214539 | 70 | 5 | 0.0 | 5.2 | 0.00 | 0.02 | 0.00 | 46 | 982.5 |
| 20260901214039 | 70 | 35 | 2.6 | 7.8 | 0.00 | 0.02 | 0.00 | 46 | 982.6 |
| 20260901213540 | 70 | 345 | 2.6 | 7.8 | 0.00 | 0.02 | 0.00 | 46 | 982.6 |
| 20260901213105 | 71 | 9 | 3.5 | 7.8 | 0.00 | 0.02 | 0.00 | 45 | 982.5 |
| 20260901212539 | 71 | 360 | 4.3 | 7.8 | 0.00 | 0.02 | 0.00 | 45 | 982.6 |
| 20260901212038 | 71 | 360 | 1.7 | 5.2 | 0.00 | 0.02 | 0.00 | 46 | 982.6 |
| 20260901211538 | 71 | 338 | 2.6 | 8.7 | 0.00 | 0.02 | 0.00 | 46 | 982.5 |
| 20260901211037 | 70 | 360 | 4.3 | 8.7 | 0.00 | 0.02 | 0.00 | 45 | 982.4 |
| 20260901210537 | 70 | 360 | 3.5 | 8.7 | 0.00 | 0.02 | 0.00 | 45 | 982.3 |
| 20260901210047 | 70 | 294 | 5.2 | 8.7 | 0.00 | 0.02 | 0.00 | 45 | 982.4 |
| 20260901205538 | 70 | 304 | 3.5 | 7.0 | 0.00 | 0.02 | 0.00 | 44 | 982.3 |
| 20260901205038 | 70 | 342 | 4.3 | 9.6 | 0.00 | 0.02 | 0.00 | 44 | 982.4 |
| 20260901204539 | 71 | 290 | 5.2 | 10.4 | 0.00 | 0.02 | 0.00 | 43 | 982.2 |
| 20260901204039 | 71 | 307 | 6.1 | 10.4 | 0.00 | 0.02 | 0.00 | 43 | 982.2 |
| 20260901203537 | 71 | 294 | 7.0 | 10.4 | 0.00 | 0.02 | 0.00 | 43 | 982.2 |
| 20260901203052 | 71 | 360 | 6.1 | 10.4 | 0.00 | 0.02 | 0.00 | 43 | 982.3 |
| 20260901202535 | 70 | 269 | 4.3 | 9.6 | 0.00 | 0.02 | 0.00 | 46 | 982.2 |
| 20260901202041 | 70 | 269 | 6.1 | 9.6 | 0.00 | 0.02 | 0.00 | 46 | 982.2 |
| 20260901201534 | 70 | 272 | 3.5 | 8.7 | 0.00 | 0.02 | 0.00 | 46 | 982.3 |
| 20260901201034 | 70 | 242 | 3.5 | 8.7 | 0.00 | 0.02 | 0.00 | 46 | 982.3 |
| 20260901200535 | 70 | 277 | 4.3 | 11.3 | 0.00 | 0.02 | 0.00 | 45 | 982.4 |
| 20260901200034 | 70 | 293 | 6.1 | 11.3 | 0.00 | 0.02 | 0.00 | 45 | 982.2 |
| 20260901195533 | 70 | 285 | 6.1 | 12.2 | 0.00 | 0.02 | 0.00 | 45 | 982.3 |
| 20260901195034 | 70 | 279 | 6.1 | 12.2 | 0.00 | 0.02 | 0.00 | 44 | 982.3 |
| 20260901194540 | 70 | 360 | 5.2 | 9.6 | 0.00 | 0.02 | 0.00 | 45 | 982.2 |
| 20260901194032 | 70 | 360 | 5.2 | 8.7 | 0.00 | 0.02 | 0.00 | 44 | 982.2 |
| 20260901193532 | 70 | 277 | 4.3 | 11.3 | 0.00 | 0.02 | 0.00 | 45 | 982.3 |
| 20260901193037 | 70 | 267 | 7.0 | 11.3 | 0.00 | 0.02 | 0.00 | 43 | 982.2 |
| 20260901192531 | 70 | 281 | 5.2 | 10.4 | 0.00 | 0.02 | 0.00 | 44 | 982.3 |
| 20260901192030 | 69 | 248 | 5.2 | 10.4 | 0.00 | 0.02 | 0.00 | 44 | 982.3 |
| 20260901191534 | 69 | 270 | 7.0 | 11.3 | 0.00 | 0.02 | 0.00 | 45 | 982.3 |
| 20260901191033 | 69 | 271 | 6.1 | 13.9 | 0.00 | 0.02 | 0.00 | 45 | 982.3 |
| 20260901190529 | 69 | 252 | 7.8 | 13.9 | 0.00 | 0.02 | 0.00 | 45 | 982.4 |
| 20260901190030 | 69 | 360 | 6.1 | 12.2 | 0.00 | 0.02 | 0.00 | 45 | 982.4 |
| 20260901185529 | 69 | 247 | 7.8 | 12.2 | 0.00 | 0.02 | 0.00 | 45 | 982.4 |
| 20260901185029 | 69 | 246 | 7.0 | 12.2 | 0.00 | 0.02 | 0.00 | 45 | 982.4 |
| 20260901184532 | 69 | 360 | 7.0 | 10.4 | 0.00 | 0.02 | 0.00 | 46 | 982.3 |
| 20260901184028 | 69 | 270 | 5.2 | 14.8 | 0.00 | 0.02 | 0.00 | 46 | 982.3 |
| 20260901183529 | 69 | 282 | 7.0 | 14.8 | 0.00 | 0.02 | 0.00 | 45 | 982.3 |
| 20260901183038 | 69 | 360 | 8.7 | 12.2 | 0.00 | 0.02 | 0.00 | 46 | 982.4 |
| 20260901182526 | 69 | 360 | 7.0 | 12.2 | 0.00 | 0.02 | 0.00 | 46 | 982.3 |
| 20260901182026 | 68 | 277 | 8.7 | 15.6 | 0.00 | 0.02 | 0.00 | 45 | 982.2 |
| 20260901181526 | 68 | 290 | 7.8 | 15.6 | 0.00 | 0.02 | 0.00 | 45 | 982.2 |
| 20260901181023 | 68 | 290 | 7.8 | 13.0 | 0.00 | 0.02 | 0.00 | 48 | 982.2 |
| 20260901180527 | 68 | 263 | 7.8 | 11.3 | 0.00 | 0.02 | 0.00 | 47 | 982.2 |
| 20260901180022 | 67 | 360 | 7.0 | 12.2 | 0.00 | 0.02 | 0.00 | 48 | 982.1 |
| 20260901175523 | 67 | 277 | 7.8 | 13.9 | 0.00 | 0.02 | 0.00 | 47 | 982.3 |
| 20260901175020 | 67 | 243 | 9.6 | 13.9 | 0.00 | 0.02 | 0.00 | 47 | 982.3 |
| 20260901174520 | 67 | 249 | 8.7 | 13.9 | 0.00 | 0.02 | 0.00 | 47 | 982.3 |
| 20260901174021 | 67 | 300 | 7.8 | 12.2 | 0.00 | 0.02 | 0.00 | 47 | 982.4 |
| 20260901173522 | 67 | 306 | 8.7 | 13.0 | 0.00 | 0.02 | 0.00 | 48 | 982.4 |
| 20260901173031 | 67 | 234 | 7.0 | 13.0 | 0.00 | 0.02 | 0.00 | 48 | 982.3 |
| 20260901172520 | 66 | 227 | 8.7 | 13.0 | 0.00 | 0.02 | 0.00 | 48 | 982.3 |
| 20260901172020 | 66 | 245 | 7.8 | 13.0 | 0.00 | 0.02 | 0.00 | 49 | 982.4 |
| 20260901171520 | 66 | 246 | 7.8 | 13.9 | 0.00 | 0.02 | 0.00 | 49 | 982.4 |
| 20260901171021 | 66 | 286 | 9.6 | 15.6 | 0.00 | 0.02 | 0.00 | 49 | 982.3 |
| 20260901170518 | 66 | 288 | 9.6 | 15.6 | 0.00 | 0.02 | 0.00 | 49 | 982.3 |
| 20260901170018 | 66 | 244 | 7.8 | 13.0 | 0.00 | 0.02 | 0.00 | 49 | 982.2 |
| 20260901165517 | 66 | 254 | 7.8 | 13.0 | 0.00 | 0.02 | 0.00 | 49 | 982.2 |
| 20260901165017 | 66 | 281 | 6.1 | 13.9 | 0.00 | 0.02 | 0.00 | 49 | 982.2 |
| 20260901164519 | 66 | 360 | 7.0 | 13.9 | 0.00 | 0.02 | 0.00 | 48 | 982.1 |
| 20260901164017 | 66 | 253 | 7.0 | 11.3 | 0.00 | 0.02 | 0.00 | 48 | 982.1 |
| 20260901163517 | 66 | 360 | 7.8 | 11.3 | 0.00 | 0.02 | 0.00 | 48 | 982.1 |
| 20260901163017 | 66 | 232 | 6.1 | 11.3 | 0.00 | 0.02 | 0.00 | 48 | 982.0 |
| 20260901162517 | 66 | 360 | 5.2 | 9.6 | 0.00 | 0.02 | 0.00 | 48 | 982.2 |
| 20260901162016 | 66 | 247 | 5.2 | 10.4 | 0.00 | 0.02 | 0.00 | 48 | 981.9 |
| 20260901161516 | 66 | 277 | 6.1 | 12.2 | 0.00 | 0.02 | 0.00 | 47 | 982.0 |
| 20260901161016 | 66 | 307 | 6.1 | 12.2 | 0.00 | 0.02 | 0.00 | 47 | 981.9 |
| 20260901160515 | 66 | 283 | 5.2 | 12.2 | 0.00 | 0.02 | 0.00 | 48 | 981.8 |
| 20260901160015 | 66 | 275 | 7.8 | 12.2 | 0.00 | 0.02 | 0.00 | 47 | 981.9 |
| 20260901155515 | 67 | 261 | 7.8 | 12.2 | 0.00 | 0.02 | 0.00 | 47 | 981.9 |
| 20260901155014 | 67 | 360 | 7.8 | 12.2 | 0.00 | 0.02 | 0.00 | 47 | 981.7 |
| 20260901154513 | 67 | 260 | 6.1 | 13.0 | 0.00 | 0.02 | 0.00 | 48 | 981.6 |
| 20260901154013 | 67 | 264 | 6.1 | 17.4 | 0.00 | 0.02 | 0.00 | 46 | 981.7 |
| 20260901153513 | 67 | 271 | 7.0 | 17.4 | 0.00 | 0.02 | 0.00 | 48 | 981.5 |
| 20260901153012 | 67 | 272 | 7.8 | 13.9 | 0.00 | 0.02 | 0.00 | 47 | 981.5 |
| 20260901152510 | 67 | 254 | 8.7 | 13.9 | 0.00 | 0.02 | 0.00 | 47 | 981.3 |
| 20260901152008 | 66 | 268 | 7.8 | 14.8 | 0.00 | 0.02 | 0.00 | 47 | 981.5 |
| 20260901151510 | 66 | 277 | 7.8 | 14.8 | 0.00 | 0.02 | 0.00 | 48 | 981.4 |
| 20260901151005 | 66 | 360 | 7.8 | 14.8 | 0.00 | 0.02 | 0.00 | 48 | 981.3 |
| 20260901150504 | 66 | 243 | 8.7 | 13.0 | 0.00 | 0.02 | 0.00 | 48 | 981.2 |
| 20260901150003 | 66 | 262 | 7.8 | 13.0 | 0.00 | 0.02 | 0.00 | 49 | 981.2 |
| 20260901145501 | 65 | 241 | 6.1 | 14.8 | 0.00 | 0.02 | 0.00 | 49 | 981.2 |
| 20260901145002 | 65 | 304 | 7.8 | 15.6 | 0.00 | 0.02 | 0.00 | 49 | 981.2 |
| 20260901144601 | 65 | 248 | 9.6 | 15.6 | 0.00 | 0.02 | 0.00 | 49 | 981.1 |
| 20260901144058 | 65 | 360 | 9.6 | 14.8 | 0.00 | 0.02 | 0.00 | 49 | 981.0 |
| 20260901143557 | 65 | 269 | 8.7 | 15.6 | 0.00 | 0.02 | 0.00 | 49 | 980.9 |
| 20260901143056 | 65 | 248 | 10.4 | 13.9 | 0.00 | 0.02 | 0.00 | 49 | 981.0 |
| 20260901142554 | 64 | 360 | 9.6 | 16.5 | 0.00 | 0.02 | 0.00 | 49 | 980.8 |
| 20260901142052 | 64 | 284 | 11.3 | 16.5 | 0.00 | 0.02 | 0.00 | 50 | 980.8 |
| 20260901141552 | 64 | 263 | 7.8 | 13.9 | 0.00 | 0.02 | 0.00 | 51 | 980.7 |
| 20260901141050 | 64 | 237 | 8.7 | 13.0 | 0.00 | 0.02 | 0.00 | 51 | 980.7 |
| 20260901140548 | 63 | 360 | 7.0 | 13.0 | 0.00 | 0.02 | 0.00 | 52 | 980.5 |
| 20260901140058 | 63 | 272 | 7.0 | 12.2 | 0.00 | 0.02 | 0.00 | 52 | 980.6 |
| 20260901135545 | 63 | 243 | 7.8 | 12.2 | 0.00 | 0.02 | 0.00 | 52 | 980.4 |
| 20260901135044 | 63 | 360 | 7.8 | 12.2 | 0.00 | 0.02 | 0.00 | 53 | 980.3 |
| 20260901134604 | 62 | 360 | 7.8 | 12.2 | 0.00 | 0.02 | 0.00 | 53 | 980.1 |
| 20260901134044 | 62 | 244 | 7.0 | 12.2 | 0.00 | 0.02 | 0.00 | 53 | 980.1 |
| 20260901133542 | 62 | 293 | 7.0 | 12.2 | 0.00 | 0.02 | 0.00 | 54 | 980.0 |
| 20260901133046 | 62 | 243 | 7.8 | 13.0 | 0.00 | 0.02 | 0.00 | 55 | 980.0 |
| 20260901132540 | 61 | 276 | 8.7 | 12.2 | 0.00 | 0.02 | 0.00 | 55 | 980.1 |
| 20260901132042 | 61 | 244 | 8.7 | 13.0 | 0.00 | 0.02 | 0.00 | 57 | 980.1 |
| 20260901131539 | 61 | 275 | 7.8 | 13.0 | 0.00 | 0.02 | 0.00 | 58 | 980.0 |
| 20260901131038 | 60 | 236 | 7.0 | 13.0 | 0.00 | 0.02 | 0.00 | 58 | 980.1 |
| 20260901130535 | 60 | 228 | 7.8 | 14.8 | 0.00 | 0.02 | 0.00 | 59 | 980.2 |
| 20260901130040 | 60 | 240 | 7.0 | 14.8 | 0.00 | 0.02 | 0.00 | 61 | 980.2 |
| 20260901125535 | 59 | 239 | 7.8 | 13.0 | 0.00 | 0.02 | 0.00 | 62 | 980.1 |
| 20260901125033 | 59 | 234 | 7.0 | 11.3 | 0.00 | 0.02 | 0.00 | 62 | 980.0 |
| 20260901124533 | 59 | 239 | 6.1 | 13.9 | 0.00 | 0.02 | 0.00 | 63 | 979.9 |
| 20260901124035 | 59 | 236 | 8.7 | 13.9 | 0.00 | 0.02 | 0.00 | 64 | 979.9 |
| 20260901123533 | 58 | 235 | 7.0 | 10.4 | 0.00 | 0.02 | 0.00 | 64 | 979.8 |
| 20260901123034 | 58 | 245 | 5.2 | 9.6 | 0.00 | 0.02 | 0.00 | 64 | 979.8 |
| 20260901122532 | 58 | 232 | 6.1 | 9.6 | 0.00 | 0.02 | 0.00 | 64 | 979.7 |
| 20260901122033 | 58 | 228 | 5.2 | 7.8 | 0.00 | 0.02 | 0.00 | 64 | 979.6 |
| 20260901121530 | 58 | 247 | 4.3 | 8.7 | 0.00 | 0.02 | 0.00 | 64 | 979.5 |
| 20260901121031 | 58 | 242 | 5.2 | 7.8 | 0.00 | 0.02 | 0.00 | 64 | 979.4 |
| 20260901120528 | 58 | 244 | 4.3 | 7.8 | 0.00 | 0.02 | 0.00 | 64 | 979.5 |
| 20260901120047 | 58 | 360 | 4.3 | 7.8 | 0.00 | 0.02 | 0.00 | 64 | 979.4 |
| 20260901115528 | 58 | 254 | 3.5 | 7.0 | 0.00 | 0.02 | 0.00 | 64 | 979.3 |
| 20260901115032 | 58 | 360 | 2.6 | 8.7 | 0.00 | 0.02 | 0.00 | 64 | 979.1 |
| 20260901114528 | 58 | 242 | 4.3 | 8.7 | 0.00 | 0.02 | 0.00 | 64 | 979.2 |
| 20260901114027 | 58 | 227 | 4.3 | 7.0 | 0.00 | 0.02 | 0.00 | 64 | 979.2 |
| 20260901113526 | 58 | 240 | 3.5 | 7.8 | 0.00 | 0.02 | 0.00 | 63 | 979.1 |